Location: Harwich
(41.7160°N, 69.9939°W)
Time: 05:28:22
(UTC+02:00)

DIWATA 2B (PO-101) - Visible Passes

Search period start: 19 September 2024 00:00
Search period end: 29 September 2024 00:00
Orbit: 572 x 586 km, 98.1° (Epoch: 18 September)

Date Brightness Start Highest point End Pass type
(mag) Time Alt. Az. Time Alt. Az. Time Alt. Az.
19 Sep ? 10:19:12 10° SSE 10:23:15 70° ENE 10:27:19 10° N visible
20 Sep ? 10:23:50 10° SSE 10:27:54 79° ENE 10:32:00 10° N visible
21 Sep ? 10:28:51 12° SSE 10:32:34 88° ENE 10:36:40 10° NNW visible
22 Sep ? 10:33:53 15° S 10:37:12 82° WSW 10:41:18 10° NNW visible
23 Sep ? 09:06:35 10° ENE 09:07:11 10° ENE 09:07:48 10° NE visible
23 Sep ? 10:38:54 18° S 10:41:51 72° WSW 10:45:56 10° NNW visible
24 Sep ? 09:10:23 10° E 09:11:46 12° ENE 09:13:09 10° NE visible
24 Sep ? 10:43:57 22° S 10:46:29 64° WSW 10:50:33 10° NNW visible
25 Sep ? 09:14:30 10° E 09:16:20 13° ENE 09:18:10 10° NE visible
25 Sep ? 10:48:59 26° S 10:51:07 56° W 10:55:08 10° NNW visible
26 Sep ? 09:18:43 10° E 09:20:54 14° ENE 09:23:05 10° NNE visible
26 Sep ? 10:54:03 30° SSW 10:55:44 49° W 10:59:43 10° NNW visible
27 Sep ? 09:23:00 10° ESE 09:25:28 16° ENE 09:27:56 10° NNE visible
27 Sep ? 10:59:06 33° SW 11:00:22 44° W 11:04:16 10° NNW visible
28 Sep ? 09:27:50 12° E 09:30:01 17° ENE 09:32:44 10° NNE visible
28 Sep ? 11:04:10 35° SW 11:04:58 39° W 11:08:49 10° NNW visible
